{"data":{"norad_id":66535,"epoch":"2026-09-20T01:02:15.586944Z","epoch_age_seconds":128616,"freshness":"FRESH","line1":"1 66535U 25265V   26263.04323596  .00009915  00000+0  36925-3 0  9997","line2":"2 66535  42.9995 260.6434 0000854 272.9796  87.0958 15.27587078 46837","mean_motion":15.27587078,"eccentricity":8.54e-5,"inclination_deg":42.9995,"raan_deg":260.6434,"arg_perigee_deg":272.9796,"mean_anomaly_deg":87.0958,"bstar":0.00036925,"rev_number":4683,"period_min":94.266311933283,"perigee_km":482.44195856056,"apogee_km":483.61384552582,"semimajor_km":6861.1649020432,"source":"CELESTRAK","updated_at":"2026-09-21T09:00:35.967217Z"}}